ONEWEB-0208 (48243 NORAD) Tracking and Keplerian Element Data

This shows tracking and keplerian element data for the satellite.

Feedback or suggestion? Click here.




ElementValue
Catalog48243
NameONEWEB-0208
Epoch Orbit180
Epoch Day136.91668981
Epoch Year2021
RAAN305.7029
Inclination87.4182
Eccentricity0.0006778
Argument of Perigee168.6476
Mean Anonmoly213.3882
Mean Motion15.30135392
Decay Rate-0.01377225
L11 48243U 21031AK 21136.91668981 -.01377225 00000-0 -51991-1 0 9994
L22 48243 87.4182 305.7029 0006778 168.6476 213.3882 15.30135392 1803

Live tracking and technical data element details for ONEWEB-0208 (NORAD 48243). ONEWEB-0208 can be tracked NOW for your location showing map with azimuth and elevation plus other details from your city location.

Track the satellite on the map from your city or location and see movement details for azimuth, elevation, latitude, longitude, range, height, and movement on the map or in text.







IsCatalogInMostPopularTable: catalog: 48243, numindb: 5
Update: records affected: 1



GetName: 48243 ONEWEB-0208

Hit Count: updated at: Mon, 17 May 2021 15:45:50 GMT